Edinburgh Airport, United Kingdom

4:59 PM BST on June 27, 2017 (GMT +0100)
Edinburgh Airport

Weather History for EGPH - October, 2010

Change the Weather History Date:

Sunday, October 24, 2010

  Actual Average Record
Temperature  
Mean Temperature 38 °F -  
Max Temperature 46 °F 50 °F 62 °F (1996)
Min Temperature 30 °F 37 °F 28 °F (2007)
Degree Days  
Heating Degree Days 27    
Moisture  
Dew Point 32 °F    
Average Humidity 78    
Maximum Humidity 100    
Minimum Humidity 57    
Precipitation  
Precipitation 0.00 in 0.08 in - ()
Sea Level Pressure  
Sea Level Pressure 30.08 in    
Wind  
Wind Speed 4 mph ()    
Max Wind Speed 9 mph    
Max Gust Speed -    
Visibility 6.2 miles    
Events      
Averages and records for this station are not official NWS values.
T = Trace of Precipitation, MM = Missing Value Source: Averaged Metar Reports

Daily Weather History Graph

Daily Weather History Graph

Search for Another Location

Airport or City:

Trip Planner

Search our weather history database for the weather conditions in past years. The results will help you decide how hot, cold, wet, or windy it might be!

Date:

Astronomy

Oct. 24, 2010 Rise Set
Actual Time 8:02 AM BST 5:51 PM BST
Civil Twilight 7:24 AM BST 6:29 PM BST
Nautical Twilight 6:41 AM BST 7:13 PM BST
Astronomical Twilight 5:58 AM BST 7:55 PM BST
Moon 5:48 PM BST (10/24) 10:02 AM BST (10/24)
Length of Visible Light 11h 05m
Length of Day
9h 48m
Full, 98% of the Moon is Illuminated
Oct 24
Full
Oct 30
Last Quarter
Nov 6
New
Nov 13
First Quarter
Nov 21
Full

Hourly Weather History & Observations

Time (BST) Temp. Windchill Dew Point Humidity Pressure Visibility Wind Dir Wind Speed Gust Speed Precip Events Conditions
12:20 AM 33.8 °F - 30.2 °F 87% 29.86 in 6.2 mi Calm Calm - N/A   Partly Cloudy
12:50 AM 33.8 °F 29.6 °F 30.2 °F 87% 29.86 in - WSW 4.6 mph - N/A   Clear
1:20 AM 41.0 °F 37.1 °F 33.8 °F 76% 29.86 in 6.2 mi NNW 5.8 mph - N/A   Partly Cloudy
1:50 AM 39.2 °F 35.9 °F 33.8 °F 81% 29.89 in - NNW 4.6 mph - N/A   Clear
2:20 AM 39.2 °F - 33.8 °F 81% 29.89 in - Variable 2.3 mph - N/A   Clear
2:50 AM 37.4 °F 34.9 °F 32.0 °F 81% 29.89 in 6.2 mi Variable 3.5 mph - N/A   Mostly Cloudy
3:20 AM 33.8 °F 28.6 °F 32.0 °F 93% 29.92 in 6.2 mi WSW 5.8 mph - N/A   Unknown
3:50 AM 35.6 °F 32.8 °F 33.8 °F 93% 29.92 in 6.2 mi Variable 3.5 mph - N/A   Unknown
4:20 AM 33.8 °F 30.8 °F 30.2 °F 87% 29.92 in - Variable 3.5 mph - N/A   Clear
4:50 AM 32.0 °F - 30.2 °F 93% 29.92 in - Variable 2.3 mph - N/A   Clear
5:20 AM 35.6 °F 32.8 °F 33.8 °F 93% 29.95 in - Variable 3.5 mph - N/A   Clear
5:50 AM 33.8 °F 29.6 °F 30.2 °F 87% 29.95 in - SSW 4.6 mph - N/A   Clear
6:20 AM 32.0 °F 27.5 °F 32.0 °F 100% 29.98 in - WSW 4.6 mph - N/A   Clear
6:50 AM 32.0 °F 26.4 °F 30.2 °F 93% 29.98 in 6.2 mi WSW 5.8 mph - N/A   Partly Cloudy
7:20 AM 32.0 °F 27.5 °F 30.2 °F 93% 30.01 in 6.2 mi WSW 4.6 mph - N/A   Partly Cloudy
7:50 AM 30.2 °F 25.4 °F 30.2 °F 100% 30.01 in - West 4.6 mph - N/A   Clear
8:20 AM 32.0 °F - 30.2 °F 93% 30.01 in - Calm Calm - N/A   Clear
8:50 AM 32.0 °F 25.6 °F 30.2 °F 93% 30.04 in - WSW 6.9 mph - N/A   Clear
9:20 AM 33.8 °F 28.6 °F 32.0 °F 93% 30.06 in 6.2 mi WSW 5.8 mph - N/A   Partly Cloudy
9:50 AM 35.6 °F 30.7 °F 33.8 °F 93% 30.06 in 6.2 mi WSW 5.8 mph - N/A   Partly Cloudy
10:20 AM 41.0 °F 38.0 °F 35.6 °F 81% 30.06 in 6.2 mi WNW 4.6 mph - N/A   Partly Cloudy
10:50 AM 42.8 °F 40.1 °F 33.8 °F 70% 30.06 in 6.2 mi NW 4.6 mph - N/A   Partly Cloudy
11:20 AM 44.6 °F 42.2 °F 35.6 °F 71% 30.09 in 6.2 mi WNW 4.6 mph - N/A   Partly Cloudy
11:50 AM 44.6 °F 42.2 °F 33.8 °F 66% 30.09 in 6.2 mi NW 4.6 mph - N/A   Partly Cloudy
12:20 PM 46.4 °F 43.5 °F 35.6 °F 66% 30.09 in 6.2 mi WNW 5.8 mph - N/A   Mostly Cloudy
12:50 PM 44.6 °F 40.7 °F 33.8 °F 66% 30.09 in 6.2 mi NNW 6.9 mph - N/A   Mostly Cloudy
1:20 PM 44.6 °F 40.7 °F 32.0 °F 61% 30.12 in 6.2 mi NNW 6.9 mph - N/A   Mostly Cloudy
1:50 PM 44.6 °F 39.7 °F 32.0 °F 61% 30.12 in 6.2 mi NNW 9.2 mph - N/A   Mostly Cloudy
2:20 PM 46.4 °F 42.9 °F 32.0 °F 57% 30.12 in 6.2 mi North 6.9 mph - N/A   Scattered Clouds
2:50 PM 46.4 °F 43.5 °F 32.0 °F 57% 30.12 in 6.2 mi NNW 5.8 mph - N/A   Scattered Clouds
3:20 PM 46.4 °F 43.5 °F 32.0 °F 57% 30.15 in 6.2 mi NNW 5.8 mph - N/A   Mostly Cloudy
3:50 PM 46.4 °F 42.4 °F 32.0 °F 57% 30.15 in 6.2 mi NNW 8.1 mph - N/A   Mostly Cloudy
4:20 PM 46.4 °F 43.5 °F 32.0 °F 57% 30.15 in 6.2 mi NNW 5.8 mph - N/A   Scattered Clouds
4:50 PM 44.6 °F 40.7 °F 32.0 °F 61% 30.15 in 6.2 mi NW 6.9 mph - N/A   Scattered Clouds
5:20 PM 44.6 °F 43.1 °F 32.0 °F 61% 30.15 in 6.2 mi Variable 3.5 mph - N/A   Partly Cloudy
5:50 PM 42.8 °F 40.1 °F 32.0 °F 66% 30.18 in 6.2 mi WNW 4.6 mph - N/A   Partly Cloudy
6:20 PM 41.0 °F - 32.0 °F 70% 30.21 in 6.2 mi Variable 2.3 mph - N/A   Partly Cloudy
6:50 PM 39.2 °F - 30.2 °F 70% 30.21 in - Calm Calm - N/A   Clear
7:20 PM 37.4 °F 34.9 °F 32.0 °F 81% 30.21 in - Variable 3.5 mph - N/A   Clear
7:50 PM 39.2 °F - 30.2 °F 70% 30.21 in 6.2 mi Variable 2.3 mph - N/A   Partly Cloudy
8:20 PM 39.2 °F 35.9 °F 30.2 °F 70% 30.24 in 6.2 mi WSW 4.6 mph - N/A   Scattered Clouds
8:50 PM 37.4 °F 34.9 °F 30.2 °F 75% 30.24 in 6.2 mi Variable 3.5 mph - N/A   Partly Cloudy
9:20 PM 37.4 °F - 30.2 °F 75% 30.24 in - Calm Calm - N/A   Clear
9:50 PM 32.0 °F 27.5 °F 28.4 °F 87% 30.27 in - SW 4.6 mph - N/A   Clear
10:20 PM 33.8 °F 30.8 °F 28.4 °F 81% 30.27 in - Variable 3.5 mph - N/A   Clear
10:50 PM 32.0 °F 28.7 °F 28.4 °F 87% 30.27 in - Variable 3.5 mph - N/A   Clear
11:20 PM 32.0 °F 26.4 °F 28.4 °F 87% 30.27 in - WSW 5.8 mph - N/A   Clear
11:50 PM 30.2 °F 24.3 °F 28.4 °F 93% 30.30 in - WSW 5.8 mph - N/A   Clear